Location: Dalrock
(32.9107°N, 96.5311°W)
Time: 03:49:41
(UTC+00:00)

Daily predictions for brighter satellites

Satellite Brightness Start Highest point End
(mag) Time Altitude Azimuth Time Altitude Azimuth Time Altitude Azimuth
Cosmos 1743 Rocket 3.7 00:00:13 10° N 00:04:33 75° W 00:08:51 10° S
Cosmos 990 Rocket 4.1 00:02:58 10° NNW 00:08:10 81° WSW 00:13:17 10° SSE
CZ-2D R/B 3.4 00:05:12 10° SSE 00:08:54 49° ENE 00:12:37 10° N
CORIOLIS 4.1 00:03:37 10° SSE 00:08:59 85° ENE 00:14:25 10° NNW
CZ-4B DEB 4.2 00:05:14 10° SSE 00:10:43 74° ENE 00:16:13 10° N
Cosmos 1634 Rocket 4.1 00:05:42 10° S 00:12:01 90° W 00:18:22 10° N
Cosmos 1340 Rocket 4.2 00:08:27 10° NNW 00:12:19 43° W 00:16:10 10° SSW
Meteor 2-21 4.4 00:07:11 10° N 00:13:12 62° E 00:19:08 10° SSE
Cosmos 1328 Rocket 4.2 00:10:29 10° SSE 00:14:30 35° E 00:18:33 10° NNE
Cosmos 1666 Rocket 4.2 00:12:01 10° NNE 00:15:59 32° E 00:19:55 10° SE
CZ-2C R/B 2.2 00:13:01 10° SW 00:16:57 37° SSE 00:19:38 17° E
ARGOS 3.5 00:20:47 10° SE 00:25:49 41° ENE 00:30:50 10° N
Cosmos 2026 Rocket 3.9 00:20:37 10° N 00:26:45 89° W 00:32:48 10° S
Cosmos 1500 3.0 00:23:35 10° N 00:27:19 76° E 00:31:01 10° S
SKYMED 2 3.5 00:24:41 10° NNE 00:29:02 82° ESE 00:33:22 10° S
COSMOS 2455 3.7 00:23:22 10° SW 00:29:08 48° WNW 00:34:58 10° NNE
Landsat 5 3.4 00:26:41 10° NNE 00:30:42 56° E 00:34:32 10° S
Cosmos 858 Rocket 4.4 00:26:51 10° NNW 00:32:09 78° ENE 00:37:23 10° SSE
SL-08 RB Rocket 4.5 00:28:18 10° SE 00:32:18 29° ENE 00:36:18 10° NNE
MOS 1-B Rocket 4.4 00:27:52 10° N 00:33:57 73° WNW 00:40:59 10° SSW
USA 229 DEB 4.0 00:27:14 10° NNW 00:34:49 87° ENE 00:42:45 10° SSE
Meteor 2-6 Rocket 4.2 00:29:04 10° S 00:34:49 64° E 00:40:27 10° NNE
USA 229 4.0 00:27:20 10° NNW 00:34:54 86° ENE 00:42:50 10° SSE
PSLV R/B 4.3 00:31:39 10° S 00:35:16 57° W 00:38:54 10° NNW
Cosmos 1570 Rocket 4.0 00:33:00 10° SSW 00:38:15 83° WNW 00:43:31 10° NNE
PAYLOAD B 4.4 00:32:55 10° S 00:38:32 80° WSW 00:44:09 10° NNW
Cosmos 2180 Rocket 4.4 00:36:47 10° S 00:43:07 76° E 00:49:26 10° N
DMSP B5D2-2 4.5 00:40:33 23° NE 00:43:16 39° E 00:48:08 10° SSE
USA 234 3.2 00:37:32 10° SE 00:44:03 73° NE 00:50:34 10° NW
CZ-4B R/B 3.1 00:38:46 10° SSE 00:44:13 78° ENE 00:49:36 10° N
Sich 1 3.8 00:40:30 10° NNW 00:44:42 53° W 00:48:53 10° S
GPS 2-04 Rocket1 2.8 00:41:49 10° WNW 00:45:55 63° N 00:47:01 43° ENE
H-2A R/B 3.8 00:49:34 18° SE 00:49:34 18° SE 00:51:14 10° SSE
deb Chang Zheng 4 3.4 00:47:23 10° SSE 00:51:40 89° E 00:56:00 10° NNW
BREEZE M DEB (TANK) 4.0 00:34:02 10° NW 00:51:59 82° NE 00:55:30 22° SE
CZ-4C R/B 2.7 00:51:56 51° NNE 00:52:41 85° ESE 00:56:02 10° S
Meteor 2-8 Rocket 4.4 00:47:26 10° S 00:53:34 90° W 00:59:46 10° N
Meteor 1-10 Rocket 4.2 00:48:12 10° S 00:53:58 68° E 00:59:17 12° NNE
CZ-2C R/B 3.1 00:49:00 10° N 00:54:04 57° WNW 00:59:06 10° SSW
Cosmos 1515 Rocket 3.6 00:51:25 10° S 00:55:46 56° E 00:56:50 44° NE
Cosmos 1666 2.5 00:53:11 10° N 00:56:55 84° W 01:00:36 10° S
Feng Yun 1-1 Rocket 4.3 01:00:11 10° SSE 01:06:01 62° ENE 01:11:50 10° N
X-37B 2.1 01:04:54 10° SW 01:06:34 31° SW 01:06:34 31° SW
Cosmos 1867 3.8 01:05:37 10° S 01:10:39 47° ESE 01:10:39 47° ESE
H-2A R/B 3.6 01:08:14 10° SSW 01:13:03 37° W 01:17:46 10° NNW
USA 276 3.6 01:11:30 10° WNW 01:13:40 35° W 01:13:40 35° W
APEX 3.3 01:10:59 10° SSW 01:15:26 75° WNW 01:15:26 75° WNW
CZ-4C R/B 3.1 01:09:54 10° NNW 01:17:29 59° ENE 01:21:47 31° SE
Cosmos 921 Rocket 3.8 01:19:10 10° SSW 01:23:10 46° WNW 01:24:15 37° NNW
USA 32 3.9 01:19:56 10° S 01:25:09 85° E 01:25:45 70° NNE
Cosmos 1633 Rocket 4.4 01:24:30 10° NNW 01:28:34 38° W 01:32:38 10° SSW
Okean O Rocket 3.2 01:28:19 10° SSW 01:32:22 35° W 01:36:29 10° NNW
Cosmos 1980 Rocket 3.3 01:36:02 10° NW 01:41:17 41° WSW 01:46:31 10° S
Cosmos 2266 Rocket 4.5 01:47:22 10° NNW 01:53:38 60° W 01:59:55 10° S
CZ-2C R/B 3.7 01:52:14 10° W 01:53:47 22° W 01:53:47 22° W
ATLAS 3B CENTAUR R/B 4.3 01:38:28 10° W 01:58:17 74° S 02:02:42 53° ESE
Cosmos 2369 Rocket 4.0 10:05:54 27° E 10:05:54 27° E 10:10:05 10° NE
CENTAUR R/B 4.3 10:38:46 19° N 10:38:46 19° N 10:40:51 10° NNE
DELTA 2 R/B (1) 4.0 10:47:13 55° NE 10:47:13 55° NE 10:51:34 10° ENE
Cosmos 2082 Rocket 3.8 10:50:13 22° S 10:50:13 22° S 10:52:07 10° S
Cosmos 2034 Rocket 3.8 10:51:33 79° NNW 10:51:57 86° W 10:58:16 10° S
OAO 3 Rocket 3.9 10:55:21 51° SSE 10:55:21 51° SSE 10:59:14 10° ESE
Cosmos 1570 Rocket 3.8 11:11:19 74° WNW 11:11:40 78° WSW 11:16:54 10° S
Cosmos 1634 Rocket 4.4 11:06:50 10° N 11:13:02 62° E 11:19:09 10° SSE
Tsikada Rocket 3.9 11:09:28 10° SSW 11:15:31 57° W 11:21:40 10° N
Cosmos 1814 Rocket 4.1 11:17:44 54° SW 11:17:44 54° SW 11:22:13 10° S
ATLAS 5 CENTAUR R/B 3.9 11:15:08 10° SSE 11:17:56 20° ESE 11:20:49 10° ENE
Hubble Space Telescope 2.5 11:29:19 21° SSW 11:29:29 21° SSW 11:32:36 10° SSE
Meteor 1-31 Rocket 3.1 11:25:46 10° NNE 11:29:38 65° E 11:33:31 10° S
Centaur D-1A AC-35 3.9 11:27:36 16° SW 11:30:29 26° S 11:33:36 10° ESE
Cosmos 921 Rocket 3.2 11:30:39 23° N 11:33:23 73° ENE 11:37:51 10° SSE
Cosmos 1782 2.6 11:33:13 64° WNW 11:33:30 67° W 11:37:23 10° S
APEX 4.1 11:36:03 29° SSW 11:36:03 29° SSW 11:38:16 10° S
Cosmos 1862 3.2 11:31:49 10° S 11:35:45 86° E 11:39:42 10° N
H-2A R/B 2.5 11:34:47 21° N 11:37:06 65° WNW 11:40:50 10° SSW
Cosmos 1241 Rocket 4.3 11:34:24 26° NNW 11:38:04 76° WSW 11:44:15 10° SSE
Cosmos 2263 4.2 11:32:44 10° SSW 11:38:17 58° WNW 11:43:57 10° NNE
YAOGAN 6 4.1 11:40:32 23° SW 11:40:32 23° SW 11:42:04 10° SSW
Okean 3 Rocket 3.6 11:35:04 10° S 11:39:35 86° E 11:44:08 10° N
SAR-Lupe-3 4.4 11:37:38 10° N 11:41:13 77° WNW 11:44:48 10° SSW
Meteor 1-26 Rocket 4.3 11:38:32 13° NNW 11:43:37 56° W 11:49:08 10° S
Cosmos 2208 Rocket 4.3 11:43:24 30° NW 11:45:33 45° WSW 11:50:35 10° S
Cosmos 1867 3.8 11:43:55 32° WNW 11:45:56 47° WSW 11:51:07 10° S
Cosmos 1503 Rocket 3.9 11:41:26 10° SSW 11:46:39 73° WNW 11:51:58 10° NNE
Gbstr 26 Del rocket 3.1 11:46:53 39° W 11:47:50 49° SW 11:52:08 10° SSE
Cosmos 1151 Rocket 3.0 11:43:28 10° N 11:47:52 84° E 11:52:14 10° S
Cosmos 1766 Rocket 3.4 11:44:09 10° SSW 11:48:27 63° W 11:52:45 10° N
Cosmos 2369 Rocket 2.8 11:47:55 28° W 11:49:16 32° WNW 11:54:14 10° N
BREEZE-M DEB (TANK) 4.1 11:37:03 16° NW 11:51:27 78° NE 11:56:19 10° ESE
SJ-12 4.2 11:48:04 10° N 11:51:59 42° WNW 11:55:53 10° SW
